When you browse on this site, cookies collect data to enhance your experience and personalize the content and advertising you see.
Visit our Privacy Policy to learn more. By continuing to use the site, you agree to this use of cookies and data.
  • în România
  • Lista ţărilor
  • Pe 7 zile
  • Temperatura apei
  • Hartă satelitară
  • Meteo pe hartă
  • Widget-uri
  • user-avatar
    Intrare

    Meteo pe oră la Shahabad

    Astăzi, 18 Februarie, Luni

    Timp Temperatura Precipitaţii Vânt Presiune Umiditate
    00:00 +28°C° 0 mm 2 m/s 724 mmHg 20%
    01:00 +28°C° 0 mm 3 m/s 724 mmHg 23%
    02:00 +27°C° 0 mm 3 m/s 723 mmHg 26%
    03:00 +26°C° 0 mm 3 m/s 723 mmHg 31%
    04:00 +26°C° 0 mm 3 m/s 723 mmHg 35%
    05:00 +25°C° 0 mm 2 m/s 723 mmHg 34%
    06:00 +26°C° 0 mm 2 m/s 724 mmHg 36%
    07:00 +27°C° 0 mm 2 m/s 724 mmHg 39%
    08:00 +27°C° 0 mm 2 m/s 725 mmHg 41%
    09:00 +29°C° 0 mm 2 m/s 725 mmHg 36%
    10:00 +31°C° 0 mm 2 m/s 725 mmHg 31%
    11:00 +32°C° 0 mm 2 m/s 725 mmHg 29%
    12:00 +35°C° 0 mm 2 m/s 724 mmHg 26%
    13:00 +36°C° 0 mm 2 m/s 724 mmHg 22%
    14:00 +36°C° 0 mm 1 m/s 723 mmHg 18%
    15:00 +36°C° 0 mm 1 m/s 723 mmHg 18%
    16:00 +36°C° 0 mm 1 m/s 722 mmHg 17%
    17:00 +36°C° 0 mm 1 m/s 722 mmHg 18%
    18:00 +35°C° 0 mm 1 m/s 722 mmHg 19%
    19:00 +34°C° 0 mm 1 m/s 722 mmHg 21%
    20:00 +33°C° 0 mm 1 m/s 723 mmHg 22%
    21:00 +32°C° 0 mm 2 m/s 723 mmHg 23%
    22:00 +31°C° 0 mm 2 m/s 723 mmHg 25%
    23:00 +31°C° 0 mm 3 m/s 723 mmHg 26%

    Mâine, 19 Februarie, Marţi

    Timp Temperatura Precipitaţii Vânt Presiune Umiditate
    00:00 +30°C° 0 mm 3 m/s 723 mmHg 30%
    01:00 +29°C° 0 mm 3 m/s 722 mmHg 34%
    02:00 +29°C° 0 mm 3 m/s 722 mmHg 37%
    03:00 +28°C° 0 mm 3 m/s 722 mmHg 42%
    04:00 +28°C° 0 mm 3 m/s 722 mmHg 46%
    05:00 +27°C° 0 mm 3 m/s 722 mmHg 50%
    06:00 +28°C° 0 mm 4 m/s 723 mmHg 55%
    07:00 +28°C° 0 mm 4 m/s 724 mmHg 60%
    08:00 +29°C° 0 mm 5 m/s 724 mmHg 64%
    09:00 +32°C° 0 mm 5 m/s 725 mmHg 55%
    10:00 +34°C° 0 mm 5 m/s 725 mmHg 46%
    11:00 +36°C° 0 mm 5 m/s 725 mmHg 37%
    12:00 +37°C° 0 mm 5 m/s 724 mmHg 33%
    13:00 +37°C° 0 mm 4 m/s 724 mmHg 28%
    14:00 +38°C° 0 mm 3 m/s 723 mmHg 24%
    15:00 +38°C° 0 mm 3 m/s 723 mmHg 23%
    16:00 +38°C° 0 mm 3 m/s 723 mmHg 23%
    17:00 +38°C° 0 mm 3 m/s 723 mmHg 22%
    18:00 +37°C° 0 mm 3 m/s 723 mmHg 24%
    19:00 +36°C° 0 mm 3 m/s 724 mmHg 26%
    20:00 +35°C° 0 mm 2 m/s 724 mmHg 27%
    21:00 +35°C° 0 mm 3 m/s 725 mmHg 28%
    22:00 +34°C° 0 mm 3 m/s 725 mmHg 29%
    23:00 +34°C° 0 mm 3 m/s 725 mmHg 30%

    Poimâine, 20 Februarie, Miercuri

    Timp Temperatura Precipitaţii Vânt Presiune Umiditate
    00:00 +33°C° 0 mm 4 m/s 725 mmHg 38%
    01:00 +32°C° 0 mm 5 m/s 725 mmHg 47%
    02:00 +30°C° 0 mm 6 m/s 724 mmHg 55%
    03:00 +29°C° 0 mm 6 m/s 724 mmHg 56%
    04:00 +29°C° 0 mm 5 m/s 724 mmHg 57%
    05:00 +28°C° 0 mm 5 m/s 724 mmHg 58%
    06:00 +29°C° 0 mm 5 m/s 725 mmHg 56%
    07:00 +29°C° 0 mm 5 m/s 726 mmHg 54%
    08:00 +29°C° 0 mm 5 m/s 727 mmHg 51%
    09:00 +32°C° 0 mm 5 m/s 727 mmHg 45%
    10:00 +34°C° 0 mm 5 m/s 727 mmHg 39%
    11:00 +36°C° 0 mm 5 m/s 727 mmHg 33%
    12:00 +37°C° 0 mm 5 m/s 727 mmHg 31%
    13:00 +39°C° 0 mm 5 m/s 726 mmHg 28%
    14:00 +40°C° 0 mm 4 m/s 725 mmHg 25%
    15:00 +38°C° 0 mm 4 m/s 725 mmHg 25%
    16:00 +38°C° 0 mm 4 m/s 725 mmHg 24%
    17:00 +38°C° 0 mm 4 m/s 724 mmHg 24%
    18:00 +37°C° 0 mm 4 m/s 725 mmHg 25%
    19:00 +36°C° 0 mm 4 m/s 726 mmHg 27%
    20:00 +35°C° 0 mm 3 m/s 727 mmHg 28%
    21:00 +34°C° 0 mm 4 m/s 727 mmHg 31%
    22:00 +34°C° 0 mm 5 m/s 727 mmHg 34%
    23:00 +33°C° 0 mm 6 m/s 727 mmHg 37%

    21 Februarie, Joi

    Timp Temperatura Precipitaţii Vânt Presiune Umiditate
    00:00 +32°C° 0 mm 6 m/s 727 mmHg 40%
    01:00 +30°C° 0 mm 6 m/s 726 mmHg 43%
    02:00 +29°C° 0 mm 5 m/s 726 mmHg 45%
    03:00 +29°C° 0 mm 5 m/s 726 mmHg 46%
    04:00 +28°C° 0 mm 5 m/s 726 mmHg 46%
    05:00 +27°C° 0 mm 5 m/s 726 mmHg 47%
    06:00 +28°C° 0 mm 4 m/s 727 mmHg 45%
    07:00 +28°C° 0 mm 4 m/s 728 mmHg 43%
    08:00 +29°C° 0 mm 3 m/s 728 mmHg 41%
    09:00 +31°C° 0 mm 3 m/s 729 mmHg 35%
    10:00 +34°C° 0 mm 3 m/s 729 mmHg 29%
    11:00 +35°C° 0 mm 3 m/s 729 mmHg 23%
    12:00 +36°C° 0 mm 3 m/s 728 mmHg 21%
    13:00 +37°C° 0 mm 3 m/s 727 mmHg 20%
    14:00 +38°C° 0 mm 3 m/s 726 mmHg 18%
    15:00 +38°C° 0 mm 3 m/s 726 mmHg 18%
    16:00 +38°C° 0 mm 3 m/s 726 mmHg 19%
    17:00 +38°C° 0 mm 3 m/s 725 mmHg 19%
    18:00 +37°C° 0 mm 3 m/s 726 mmHg 20%
    19:00 +36°C° 0 mm 2 m/s 726 mmHg 21%
    20:00 +35°C° 0 mm 2 m/s 727 mmHg 23%
    21:00 +34°C° 0 mm 3 m/s 727 mmHg 25%
    22:00 +33°C° 0 mm 3 m/s 727 mmHg 28%
    23:00 +32°C° 0 mm 4 m/s 727 mmHg 30%

    22 Februarie, Vineri

    Timp Temperatura Precipitaţii Vânt Presiune Umiditate
    00:00 +32°C° 0 mm 4 m/s 727 mmHg 32%
    01:00 +30°C° 0 mm 4 m/s 726 mmHg 33%
    02:00 +29°C° 0 mm 3 m/s 725 mmHg 35%
    03:00 +28°C° 0 mm 3 m/s 725 mmHg 36%
    04:00 +28°C° 0 mm 3 m/s 725 mmHg 37%
    05:00 +27°C° 0 mm 2 m/s 725 mmHg 38%
    06:00 +28°C° 0 mm 3 m/s 726 mmHg 36%
    07:00 +29°C° 0 mm 3 m/s 727 mmHg 34%
    08:00 +30°C° 0 mm 3 m/s 728 mmHg 32%
    09:00 +33°C° 0 mm 3 m/s 728 mmHg 29%
    10:00 +35°C° 0 mm 3 m/s 728 mmHg 26%
    11:00 +37°C° 0 mm 3 m/s 728 mmHg 22%
    12:00 +37°C° 0 mm 3 m/s 727 mmHg 21%
    13:00 +38°C° 0 mm 3 m/s 726 mmHg 20%
    14:00 +39°C° 0 mm 3 m/s 725 mmHg 18%
    15:00 +39°C° 0 mm 3 m/s 724 mmHg 18%
    16:00 +39°C° 0 mm 3 m/s 724 mmHg 17%
    17:00 +39°C° 0 mm 3 m/s 724 mmHg 17%
    18:00 +38°C° 0 mm 3 m/s 724 mmHg 18%
    19:00 +37°C° 0 mm 3 m/s 725 mmHg 19%
    20:00 +36°C° 0 mm 3 m/s 726 mmHg 20%
    21:00 +35°C° 0 mm 3 m/s 726 mmHg 21%
    22:00 +34°C° 0 mm 3 m/s 726 mmHg 23%
    23:00 +33°C° 0 mm 4 m/s 726 mmHg 25%

    23 Februarie, Sâmbătă

    Timp Temperatura Precipitaţii Vânt Presiune Umiditate
    00:00 +32°C° 0 mm 4 m/s 725 mmHg 27%
    01:00 +32°C° 0 mm 4 m/s 725 mmHg 29%
    02:00 +30°C° 0 mm 4 m/s 724 mmHg 31%
    03:00 +29°C° 0 mm 3 m/s 724 mmHg 31%
    04:00 +28°C° 0 mm 3 m/s 724 mmHg 32%
    05:00 +28°C° 0 mm 3 m/s 724 mmHg 32%
    06:00 +29°C° 0 mm 3 m/s 725 mmHg 30%
    07:00 +30°C° 0 mm 4 m/s 726 mmHg 27%
    08:00 +30°C° 0 mm 4 m/s 726 mmHg 24%
    09:00 +33°C° 0 mm 4 m/s 726 mmHg 22%
    10:00 +35°C° 0 mm 4 m/s 726 mmHg 20%
    11:00 +37°C° 0 mm 4 m/s 726 mmHg 18%
    12:00 +38°C° 0 mm 3 m/s 725 mmHg 17%
    13:00 +38°C° 0 mm 3 m/s 724 mmHg 17%
    14:00 +39°C° 0 mm 3 m/s 723 mmHg 17%
    15:00 +39°C° 0 mm 2 m/s 723 mmHg 16%
    16:00 +39°C° 0 mm 2 m/s 723 mmHg 16%
    17:00 +39°C° 0 mm 2 m/s 723 mmHg 15%
    18:00 +38°C° 0 mm 2 m/s 723 mmHg 16%
    19:00 +37°C° 0 mm 2 m/s 724 mmHg 18%
    20:00 +36°C° 0 mm 2 m/s 724 mmHg 19%
    21:00 +35°C° 0 mm 3 m/s 724 mmHg 19%
    22:00 +34°C° 0 mm 4 m/s 724 mmHg 19%
    23:00 +34°C° 0 mm 4 m/s 724 mmHg 19%
    Arată mai mult